Station SPXA2 - Ship Island, AK Image indicating link to RSS feed of recent meteorological observations for station SPXA2


Conditions at SPXA2 as of
(9:43 am AKDT)
1743 GMT on 04/17/2024:
     

Click on the graph icon in the table below to see a time series plot of the last five days of that observation.

5-day plot - Wind Direction Wind Direction (WDIR):WNW ( 290 deg true )
5-day plot - Wind Speed Wind Speed (WSPD): 2.9 kts
5-day plot - Wind Gust Wind Gust (GST): 4.1 kts
5-day plot - Atmospheric Pressure Atmospheric Pressure (PRES):30.53 in
5-day plot - Air Temperature Air Temperature (ATMP): 43.0 °F
5-day plot - Wind Chill Wind Chill (CHILL): 41.4 °F
5-day plot - Wind Speed at 10 Meters Wind Speed at 10 meters (WSPD10M): 3.9 kts
5-day plot - Wind Speed at 20 Meters Wind Speed at 20 meters (WSPD20M): 3.9 kts
5-day plot -  Wind Speed, Wind Gust and Atmospheric Pressure Combined plot of Wind Speed, Gust, and Air Pressure
Previous observations
TIME
(AKDT)
5-day plot - Wind Direction
WDIR
 
5-day plot - Wind Speed
WSPD
kts
5-day plot - Wind Gust
GST
kts
5-day plot - Wave Height
WVHT
ft
5-day plot - Dominant Wave Period
DPD
sec
5-day plot - Average Wave Period
APD
sec
5-day plot - Mean Wave Direction
MWD
 
5-day plot - Atmospheric Pressure
PRES
in
5-day plot - Pressure Tendency
PTDY
in
5-day plot - Air Temperature
ATMP
°F
5-day plot - Water Temperature
WTMP
°F
5-day plot - Dew Point
DEWP
°F
5-day plot - Salinity
SAL
psu
5-day plot - Visibility
VIS
nmi
5-day plot - Tide (above MLLW)
TIDE
ft
2024-04-17 09:33 amWNW 2.9 4.1----30.53- 42.8-----
2024-04-17 09:23 amWNW 2.9 4.1----30.53- 42.8-----
2024-04-17 09:13 am NW 2.9 4.1----30.53- 42.6-----
2024-04-17 09:03 am NW 2.9 4.1----30.53- 42.6-----
2024-04-17 08:53 amNNW 1.9 4.1----30.53- 42.8-----
2024-04-17 08:43 amNNW 1.9 4.1----30.53- 43.2-----
2024-04-17 08:33 am- 0.0 1.9----30.53- 43.7-----
2024-04-17 08:23 amNNE 1.0 1.9----30.53- 42.6-----
2024-04-17 08:13 amNNE 1.0 1.9----30.53- 42.1-----
2024-04-17 08:03 am N 1.0 2.9----30.53- 41.2-----
2024-04-17 07:53 amNNE 1.0 2.9----30.53- 40.5-----
2024-04-17 07:43 amNNE 1.9 4.1----30.52- 40.3-----
2024-04-17 07:33 amNNE 1.0 2.9----30.52- 40.3-----
2024-04-17 07:23 amNNE 1.9 5.1----30.52- 40.6-----
2024-04-17 07:13 amNNE 1.9 4.1----30.52- 40.5-----
2024-04-17 07:03 amNNE 1.9 5.1----30.52- 40.1-----
2024-04-17 06:43 amNNE 1.9 4.1----30.52- 39.4-----
2024-04-17 06:33 amNNE 1.9 4.1----30.51- 39.4-----
2024-04-17 06:23 amNNE 1.9 5.1----30.51- 38.8-----
2024-04-17 06:13 amNNE 1.9 2.9----30.51- 38.3-----
2024-04-17 06:03 amNNE 1.0 2.9----30.51- 38.3-----
2024-04-17 05:53 am NE 1.9 2.9----30.51- 38.3-----
2024-04-17 05:43 am NE 1.0 1.9----30.50- 38.8-----
2024-04-17 05:33 am E 1.0 2.9----30.50- 38.8-----
2024-04-17 05:23 amENE 1.0 1.9----30.50- 38.3-----
2024-04-17 05:13 am- 0.0 1.9----30.50- 38.5-----
2024-04-17 05:03 am NE 1.9 2.9----30.50- 38.5-----
2024-04-17 04:53 amNNE 1.0 2.9----30.50- 38.7-----
2024-04-17 04:43 amNNE 1.0 2.9----30.50- 38.8-----
2024-04-17 04:33 amNNE 1.0 2.9----30.50- 38.8-----
2024-04-17 04:23 am NE 1.0 1.9----30.50- 39.6-----
2024-04-17 04:13 am- 0.0 1.9----30.50- 40.5-----
2024-04-17 04:03 am NE 1.0 1.9----30.50- 39.9-----
2024-04-17 03:53 am E 1.0 1.9----30.50- 40.5-----
2024-04-17 03:43 am E 1.0 1.9----30.50- 41.0-----
2024-04-17 03:33 am E 1.9 1.9----30.50- 40.1-----
2024-04-17 03:23 amENE 1.0 1.9----30.50- 40.1-----
2024-04-17 03:13 amENE 1.0 1.9----30.50- 40.3-----
2024-04-17 03:03 amENE 1.9 2.9----30.50- 39.4-----
2024-04-17 02:53 am NE 1.0 1.9----30.50- 40.1-----
2024-04-17 02:43 amNNE 1.0 1.9----30.50- 40.8-----
2024-04-17 02:33 am E 1.9 1.9----30.49- 41.2-----
2024-04-17 02:23 am E 1.0 2.9----30.49- 41.7-----
2024-04-17 02:13 amESE 1.0 1.9----30.49- 41.7-----
2024-04-17 02:03 am E 1.9 1.9----30.49- 41.0-----
2024-04-17 01:53 amENE 1.0 1.9----30.49- 40.6-----
2024-04-17 01:43 am NE 1.0 1.9----30.49- 41.2-----
2024-04-17 01:33 am- 0.0 1.9----30.49- 41.9-----
2024-04-17 01:23 amENE 1.0 1.9----30.49- 41.7-----
2024-04-17 01:13 amESE 1.0 1.9----30.49- 42.4-----
2024-04-17 01:03 am- 0.0 1.9----30.48- 42.3-----
2024-04-17 12:53 am NE 1.9 2.9----30.48- 41.7-----
2024-04-17 12:43 amESE 1.0 1.9----30.48- 43.2-----
2024-04-17 12:33 am E 1.9 1.9----30.48- 42.6-----
2024-04-17 12:23 amENE 1.9 1.9----30.47- 42.4-----
2024-04-17 12:13 am E 1.9 1.9----30.47- 42.4-----
2024-04-17 12:03 am E 1.9 4.1----30.47- 42.6-----
2024-04-16 11:53 pm E 1.9 2.9----30.47- 42.3-----
2024-04-16 11:43 pm- 0.0 2.9----30.47- 42.4-----
2024-04-16 11:33 pmNNW 1.0 1.9----30.47- 43.3-----
2024-04-16 11:23 pm NW 1.9 2.9----30.47- 43.9-----
2024-04-16 11:13 pmNNE 1.0 1.9----30.47- 42.4-----
2024-04-16 11:03 pm- 0.0 1.9----30.47- 43.3-----
2024-04-16 10:53 pm E 1.0 1.9----30.47- 43.3-----
2024-04-16 10:43 pm E 1.9 2.9----30.46- 43.5-----
2024-04-16 10:33 pmENE 1.9 2.9----30.46- 43.0-----
2024-04-16 10:23 pmENE 1.9 1.9----30.46- 43.3-----
2024-04-16 10:13 pm SE 1.9 4.1----30.46- 43.7-----
2024-04-16 10:03 pmESE 2.9 5.1----30.46- 43.2-----
2024-04-16 09:53 pmENE 1.9 2.9----30.46- 43.7-----
2024-04-16 09:43 pm SE 2.9 4.1----30.46- 44.4-----
2024-04-16 09:33 pm E 1.9 4.1----30.45- 43.9-----
2024-04-16 09:23 pmESE 1.9 1.9----30.45- 44.6-----
2024-04-16 09:13 pm SE 1.9 1.9----30.45- 44.6-----
2024-04-16 09:03 pmESE 1.9 2.9----30.45- 45.1-----
2024-04-16 08:53 pmENE 1.0 1.9----30.45- 45.1-----
2024-04-16 08:43 pm- 0.0 1.9----30.45- 45.7-----
2024-04-16 08:33 pm N 1.0 1.9----30.44- 46.8-----
2024-04-16 08:23 pmWSW 1.0 1.9----30.44- 47.5-----
2024-04-16 08:13 pm- 0.0 1.0----30.43- 48.4-----
2024-04-16 08:03 pm- 0.0 1.9----30.43- 49.5-----
2024-04-16 07:53 pm SE 1.0 1.9----30.43- 50.5-----
2024-04-16 07:43 pm SE 1.9 2.9----30.43- 50.9-----
2024-04-16 07:33 pmESE 2.9 4.1----30.43- 50.4-----
2024-04-16 07:23 pm SE 2.9 4.1----30.43- 50.4-----
2024-04-16 07:13 pm SE 2.9 5.1----30.43- 50.2-----
2024-04-16 07:03 pm SE 4.1 6.0----30.43- 49.5-----
2024-04-16 06:53 pm SE 4.1 6.0----30.43- 49.5-----
2024-04-16 06:43 pm SE 2.9 5.1----30.43- 50.7-----
2024-04-16 06:33 pm NW 1.0 2.9----30.43- 51.8-----
2024-04-16 06:23 pm SW 1.0 1.9----30.43- 52.2-----
2024-04-16 06:13 pm- 0.0 1.9----30.43- 51.4-----
2024-04-16 06:03 pm SW 1.9 6.0----30.43- 51.3-----
2024-04-16 05:53 pmNNW 1.0 1.9----30.43- 51.8-----
2024-04-16 05:43 pm N 1.9 4.1----30.43- 51.1-----
2024-04-16 05:33 pm N 2.9 4.1----30.42- 50.5-----
2024-04-16 05:23 pm N 1.9 2.9----30.43- 50.4-----
2024-04-16 05:13 pm N 2.9 4.1----30.43- 49.8-----
2024-04-16 05:03 pm N 1.9 4.1----30.43- 49.1-----
2024-04-16 04:53 pmNNW 2.9 4.1----30.43- 48.7-----
2024-04-16 04:43 pm NW 4.1 6.0----30.43- 47.7-----
2024-04-16 04:33 pmWNW 5.1 6.0----30.43- 47.3-----
2024-04-16 04:23 pm NW 5.1 6.0----30.43- 47.3-----
2024-04-16 04:13 pm NW 6.0 7.0----30.43- 46.9-----
2024-04-16 03:53 pm NW 7.0 7.0----30.44- 46.8-----
2024-04-16 03:43 pmWNW 6.0 6.0----30.44- 46.6-----
2024-04-16 03:33 pmWNW 6.0 6.0----30.44- 46.4-----
2024-04-16 03:23 pm NW 6.0 7.0----30.43- 46.2-----
2024-04-16 03:13 pm NW 6.0 7.0----30.44- 46.2-----
2024-04-16 03:03 pmNNW 7.0 7.0----30.44- 46.0-----
2024-04-16 02:53 pmNNW 7.0 8.0----30.44- 45.9-----
2024-04-16 02:43 pm NW 7.0 8.9----30.45- 45.7-----
2024-04-16 02:33 pm NW 7.0 8.0----30.45- 45.7-----
2024-04-16 02:23 pmNNW 6.0 8.0----30.45- 46.0-----
2024-04-16 02:13 pm N 4.1 8.0----30.45- 46.2-----
2024-04-16 01:53 pmNNW 7.0 8.9----30.45- 45.1-----
2024-04-16 01:43 pmNNW 7.0 8.9----30.45- 45.1-----
2024-04-16 01:33 pmNNW 7.0 8.9----30.45- 45.3-----
2024-04-16 01:23 pmNNW 4.1 8.0----30.45- 45.7-----
2024-04-16 01:13 pmNNW 6.0 11.1----30.45- 45.0-----
2024-04-16 01:03 pmNNW 8.0 11.1----30.45- 44.8-----
2024-04-16 12:53 pmNNW 7.0 9.9----30.45- 44.6-----
2024-04-16 12:43 pmNNW 6.0 9.9----30.45- 44.8-----
2024-04-16 12:33 pmNNW 7.0 11.1----30.45- 44.6-----
2024-04-16 12:23 pm N 5.1 8.9----30.45- 45.0-----
2024-04-16 12:13 pm N 4.1 6.0----30.45- 44.8-----
2024-04-16 12:03 pm N 4.1 7.0----30.45- 44.2-----
2024-04-16 11:53 amNNW 6.0 8.9----30.45- 43.7-----
2024-04-16 11:44 amNNW 6.0 11.1----30.45- 43.7-----
2024-04-16 11:33 amNNW 6.0 11.1----30.45- 43.5-----
2024-04-16 11:13 am NW 9.9 12.0----30.45- 42.8-----
2024-04-16 11:03 am NW 9.9 11.1----30.45- 42.8-----
2024-04-16 10:53 am NW 8.9 11.1----30.45- 42.8-----
2024-04-16 10:43 am NW 9.9 12.0----30.45- 42.6-----
2024-04-16 10:33 am NW 11.1 12.0----30.45- 42.4-----
2024-04-16 10:23 am NW 9.9 12.0----30.45- 42.6-----
2024-04-16 10:13 am NW 11.1 13.0----30.45- 42.8-----
2024-04-16 10:03 am NW 11.1 13.0----30.45- 42.8-----
2024-04-16 09:53 am NW 11.1 13.0----30.45- 42.6-----